Погода Пушкинские Горы

Погода Пушкинские Горы : погода сейчас, прогноз погоды и архив. Всё, что Вы хотите узнать о погоде Пушкинские Горы!

Хотите узнать прогноз погоды Пушкинские Горы? Тогда Вам сюда: Погода Пушкинские Горы

Поиск расширенной информации на нашем сайте:

Другие новости

Новости СМИ2

Главная страница сайта

Новости сайта

03.07.2017

Напоминаем, что на нашем специализированном сайте Метеоцентр.Азия вы можете получить высокодетализированные автоматические прогнозы погоды по пунктам России, СНГ и мира в авиационном формате (включающие направление и скорость ветра, видимость, явления погоды, количество и форму облачности, нижнюю и верхнюю границу облачности).


Погода Пушкинские Горы - сегодня

Время (UTC), дата Ветер
(°,м/с) 
Видим.   Явления Облачность Т
(°С)
Тd
(°С)
f(%) Тe
(°С)
Pmin
(гПа)
dP
(гПа)
Po
(мм)
O2
(г/м3)
Тmin Tmax R s Состояние
почвы
21 19.02.18 290 (З) 10 км  слаб. ливневой снег  10/10 300 м кучево-дожд. 
[Cb cap]
-6.4 -7.7 90 -6  1023.9  0.1  758  314           
03 20.02.18 320 (СЗ) 4000 м  слаб. ливневой снег  10/10 300 м кучево-дожд. 
[Cb cap]
-6.8 -8.2 90 -8  1024.1  758  314  -6.8    0.3     
06 20.02.18 тихо ()   10 км  слаб. ливневой снег  10/10 300 м кучево-дожд. 
[Cb cap]
-9 -10.2 91 -9  1024.7  0.4  759  317  -9    0.8  41  равномерный
сухой снег
100% 
09 20.02.18 330 (СЗ) 20000 м  {ливн. осадки}  9/5 600 м кучево-дожд., средняя 
[Cb cap|Ac trans]
-7.2 -10.3 78 -9  1025.1  0.5  759  315           
21 20.02.18 тихо ()   20000 м    ясно 
-15.5 -17.3 86 -16  1026.6  0.2  760  326           
00 21.02.18 020 (С) 20000 м    ясно 
-17.6 -19.6 84 -18  1027.1  0.4  760  329           
03 21.02.18 200 (Ю) 10 км  слаб. ливневой снег  10/10 300 м кучево-дожд. 
[Cb cap]
-19.2 -21.3 83 -19  1027.7  0.4  760  331  -20.8    0.0     
06 21.02.18 тихо ()   10 км  слаб. ливневой снег  9/9 300 м кучево-дожд. 
[Cb cap]
-17.5 -19.6 84 -18  1027.4  0.1  760  329  -20.8    0.0  41  равномерный
сухой снег
100% 
09 21.02.18 тихо ()   10 км  {ливн. осадки}  9/0 средняя 
[Ac trans]
-13.6 -15.8 83 -14  1027.7  0.5  761  324           
21 21.02.18 070 (В) 20000 м    ясно 
-15.2 -16.6 89 -15  1029.7  1.2  762  327           
00 22.02.18 тихо ()   20000 м    ясно 
-18.5 -20.5 84 -19  1030.9  0.9  763  331           
03 22.02.18 тихо ()   20000 м    ясно 
-21.8 -24 82 -22  1031.5  0.5  763  336  -21.9    0.0     
09 22.02.18 330 (СЗ) 20000 м    ясно 
-16.5 -19.1 80 -17  1032.7  0.7  764  329           
12 22.02.18 300 (СЗ) 20000 м    3/3 1000 м 
[Cu hum]
-9.4 -14.8 65 -9  1032.1  0.1  764  320           
15 22.02.18 360 (С) 20000 м    ясно 
-10.2 -15.9 63 -10  1030.9  -1.2  763  321           
21 22.02.18 тихо ()   20000 м    ясно 
-18.5 -20.2 86 -19  1031.3  0.1  763  331           
00 23.02.18 тихо ()   20000 м    н/о 
-20.2 -22 86 -20  1031.2  0.1  763  334           
03 23.02.18 160 (Ю) 20000 м    8/0 средняя 
[Ac trans]
-21.2 -23.5 82 -22  1030.1  -1.1  762  335  -23.1         
06 23.02.18 180 (Ю) 10 км  слаб. ливневой снег  9/8 600 м кучево-дожд., средняя 
[Cb cap|Ac trans]
-21.1 -23.6 80 -21  1030  0.1  762  334  -23.1    0.0  39  равномерный
сухой снег
100% 
09 23.02.18 200 (Ю) 10 км  слаб. ливневой снег  9/8 600 м кучево-дожд., средняя 
[Cb cap|Ac trans]
-14.2 -16.7 81 -14  1029.7  0.1  762  325           
15 23.02.18 340 (С) 20000 м    9/3 600 м кучево-дожд., средняя 
[Cb cap|Ac trans]
-11.5 -16.1 69 -11  1027.8  -0.6  761  321      0.0     
21 23.02.18 050 (СВ) 20000 м    9/8 600 м кучево-дожд., средняя 
[Cb cap|Ac trans]
-12.5 -14.8 83 -12  1028.9  0.8  762  323           
00 24.02.18 050 (СВ) 20000 м  {ливн. осадки}  ясно 
-15.2 -16.8 88 -15  1029.8  0.7  762  327           
03 24.02.18 010 (С) 10 км    ясно 
-17.1 -19 85 -17  1030.8  0.9  763  329  -17.9    0.0     
09 24.02.18 360 (С) 20000 м    1/0 верхняя 
[Ci fib]
-13.5 -16.8 76 -16  1032.2  0.5  764  325           
Время (UTC), дата Ветер
(°,м/с) 
Видим.   Явления Облачность Т
(°С)
Тd
(°С)
f(%) Тe
(°С)
Pmin
(гПа)
dP
(гПа)
Po
(мм)
O2
(г/м3)
Тmin Tmax R s Состояние
почвы

Для получения пояснительной информации подведите курсор к названию столбца.

ПОГОДА Пушкинские Горы - архив

Всё, что Вы хотите узнать о погоде Пушкинские Горы - удобно и подробно!

Выберите нужную дату (начиная с 1 января 2015* года) и нажмите кнопку "Найти".
Будут отображены архивные сводки погоды по пункту Пушкинские Горы, начиная с указанной даты.


Отображать данные в формате CSV (для использования в таблицах Excel)


Внимание! Наш архив погоды предназначен исключительно для личного некоммерческого использования в познавательных целях. Если Вам необходимы официальные справки о состоянии погоды (для производственных, юридических, коммерческих и т.п. целей), обращайтесь в органы Росгидромета.

*Примечание: данная дата относится к архиву по метеостанциям СССР (Россия, СНГ, Балтия).
Архив по метеостанциям Зарубежной Европы и Азии (кроме Китая) хранится 10 дней, по другим регионам земного шара (Китай, Африка, Америка, Австралия, Океания) - 1 день.

Пушкинские Горы - район местоположения метеостанции


Название, широта, долгота, высота метеостанции:
Пушкинские Горы 57°ш. 28.9°д. 108 м над ур. моря [Российская Федерация]

Дополнительная информация

В oтличие oт бoльшинства пoгoдных сайтoв мы публикуем пoдрoбную метеoинфoрмацию в детальнoм прoфессиoнальнoм фoрмате.

Характеристики температуры и влажнoсти вoздуха измеряются на высoте 2 м в тени вдали oт зданий и деревьев.
Скoрoсть ветра измеряется на высoте 10 м (на урoвне рoста челoвека скoрoсть ветра ниже в 1.5-2 раза). Если метеoстанция нахoдится в гoрoде или в лесу, тo скoрoсть ветра занижена на 2-4 м/с пo сравнению с oткрытым местoм. Скoрoсть ветра над акватoриями крупных рек и oзёр, а также на вершинах хoлмoв на 2-5 м/с выше, чем в oбычных услoвиях.
Атмoсфернoе давление в разных тoчках местнoсти мoжет значительнo oтличаться oт давления на метеoстанции, в зависимoсти oт услoвий рельефа (при пoдъёме на 10 м давление пoнижается примернo на 1 мм рт.ст.).